Regional Weather Roundup
Issued by NWS State College, PA

Home | Current Version | Previous Version | Text Only | Print | Product List | Glossary Off
Versions: 1 2 3 4 5 6 7 8 9 10 11 12 13 14 15 16 17 18 19 20 21 22 23 24 25 26 27 28 29 30 31 32 33 34 35 36 37 38 39 40 41 42 43 44 45 46 47 48 49 50

000
ASUS41 KCTP 012110
RWRCTP

REGIONAL WEATHER ROUNDUP
NATIONAL WEATHER SERVICE STATE COLLEGE PA
400 PM EST SUN MAR 01 2015

Note: "fair" indicates few or no clouds below 12,000 feet with no
significant weather and/or obstructions to visibility.

* = STATION THAT DOES NOT REPORT PRECIPITATION /E.G. RAIN...SNOW...ETC/
    THUNDER OR FOG.

PAZ002>004-007>009-013>016-020>023-029>032-012200-
WESTERN PENNSYLVANIA

CITY           SKY/WX    TMP DP  RH WIND       PRES   REMARKS
ERIE           LGT SNOW  26  22  84 W8        30.24S VSB 1
MEADVILLE      LGT SNOW  29  25  85 W5        30.18F
FRANKLIN*      CLOUDY    32  28  86 SW5       30.19F
NEW CASTLE     LGT SNOW  33  33 100 CALM      30.22F FOG
BEAVER COUNTY  LGT SNOW  34  32  93 SW12      30.21F VSB 1
BUTLER*        CLOUDY    34  30  86 SW6       30.22S
PITTSBURGH INT LGT SNOW  34  33  96 SW7       30.21F FOG
PITTSBURGH     LGT SNOW  33  30  88 S8        30.21F
INDIANA*       CLOUDY    34  34 100 W7        30.24F FOG
LATROBE        LGT RAIN  36  36 100 SW9       30.24F
WASHINGTON CO* CLOUDY    36  34  93 SW5       30.23F
$$

PAZ004>006-010>012-017>019-024>028-033>037-041-042-045-046-049>053-012200-
CENTRAL PENNSYLVANIA

CITY           SKY/WX    TMP DP  RH WIND       PRES   REMARKS
BRADFORD       SNOW      30  27  88 VRB5      30.13F VSB 1/2
DUBOIS         SNOW      33  31  92 SW12      30.16F VSB 1/2
CLEARFIELD     LGT SNOW  28  26  92 CALM      30.20F FOG
JOHNSTOWN      LGT SNOW  33  32  96 SW10      30.16F VSB 1
ALTOONA        LGT SNOW  29  26  89 S5        30.22F FOG
STATE COLLEGE  LGT SNOW  27  23  86 S5        30.25F VSB 3/4
WILLIAMSPORT   LGT SNOW  26  19  74 E8        30.31F
SELINSGROVE    LGT SNOW  26  22  84 S8        30.33F FOG
FT INDIANTOWN  LGT SNOW  23  21  93 E2        30.36F FOG
CAPITAL CITY   MIX PCPN  26  23  88 E8        30.35F FOG
HARRISBURG     FRZ DRZL  27  23  85 E6        30.35F FOG
YORK           FRZ RAIN  30  27  88 S6        30.34F FOG
$$

PAZ038>040-043-044-047-048-054-055-060>062-067>071-012200-
EASTERN PENNSYLVANIA

CITY           SKY/WX    TMP DP  RH WIND       PRES   REMARKS
SCRANTON       LGT SNOW  25  19  78 VRB3      30.29F
MOUNT POCONO   LGT SNOW  19  15  84 S5        30.24F VSB 1   WCI  12
ALLENTOWN      SNOW      25  20  81 CALM      30.37F VSB 1/2
QUAKERTOWN*    CLOUDY    23  21  93 CALM      30.37F
READING        LGT SNOW  24  20  84 CALM      30.37F FOG
LANCASTER      FRZ RAIN  26  25  96 E6        30.35F FOG
COATESVILLE    LGT RAIN  30  30 100 S3        30.36F
POTTSTOWN      FRZ RAIN  26  25  96 CALM      30.39F FOG
BLUE BELL      CLOUDY    30  28  93 SE3       30.38F
DOYLESTOWN     FRZ RAIN  24  23  96 CALM      30.37F FOG
WILLOW GROVE   NOT AVBL
NORTH PHILA    FRZ RAIN  29  24  82 SE3       30.42F
PHILADELPHIA   FRZ RAIN  29  26  89 SW5       30.42F FOG
$$


USA.gov is the U.S. government's official web portal to all federal, state and local government web resources and services.